Location: Rumah Apan
(2.7833°N, 113.9500°E)
Time: 00:44:38
(UTC+00:00)

Lacrosse 4 Rocket - Pass Details

Date: 25 July 2021
Orbit: 542 x 615 km, 68.0° (Epoch: 22 September)

Event Time Altitude Azimuth Distance (km) Brightness Sun altitude
Rises 11:43:35 0° 320° (NW) 2,715 6.0 -16.1°
Reaches altitude 10° 11:46:04 10° 305° (NW) 1,835 5.2 -16.7°
Maximum altitude 11:49:23 24° 251° (WSW) 1,197 3.6 -17.5°
Drops below altitude 10° 11:52:47 10° 197° (SSW) 1,875 4.0 -18.3°
Enters shadow 11:54:53 - 185° (S) 2,611 4.6 -18.8°
